(223831) = 2004 TG129

Discovered at Socorro on 2004-10-07 by LINEAR.

Orbit

Orbit type: Main Belt

Note: WebGL enabled browser required.

epoch2024-03-31.0
epoch JD2460400.5
perihelion date2025-04-21.35599
perihelion JD2460786.85599
argument of perihelion (°)225.76538
ascending node (°)161.79237
inclination (°)9.15748
eccentricity0.1003760
perihelion distance (AU)2.6669295
Tisserand w.r.t. Jupiter3.2
ΔV w.r.t. Earth (km/sec)10.6
semimajor axis (AU)2.9644935
mean anomaly (°)285.39538
mean daily motion (°/day)0.19309810
aphelion distance (AU)3.262
period (years)5.1
P-vector [x]0.88369163
P-vector [y]0.46186503
P-vector [z]0.07595911
Q-vector [x]-0.46542050
Q-vector [y]0.84980204
Q-vector [z]0.24742726
absolute magnitude15.93
phase slope0.15
uncertainty0
referenceMPEC 2024-C82
observations used327
oppositions15
arc length (days)8180
first opposition used2001
last opposition used2023
residual rms (arc-secs)0.65
perturbers coarse indicatorM-v
perturbers precise indicator003Ek
first observation date used2001-01-27.0
last observation date used2023-06-21.0
computer nameMPCLINUX
JD of orbit computation2456937.435169
perihelion JD uncertainty (days)1.0952E-04
argument of perihelion uncertainty (°)3.2270E-05
ascending node uncertainty (°)2.4895E-05
inclination uncertainty (°)7.2270E-06
eccentricity uncertainty 9.6423E-08
perihelion distance uncertainty (AU)2.9623E-07
Minimum Orbit Intersection Distances (in AU)
for orbit epoch: 2460200.5, reference: E2024-C82
Mercury2.32931
Venus1.94495
Earth1.67922
Mars1.24759
Jupiter2.21603
Saturn6.17521
Uranus15.2472
Neptune27.1802

Observations

332 total observations over interval: 2001 01 27.37298 – 2023 06 21.413196
These data are available for download (format description).

Date (UT) J2000 RA J2000 Dec Magn Location Ref
2001 01 27.37298 08 56 07.17 +10 04 29.0 20.1   608 – Haleakala-AMOS MPS 284323
2001 01 27.52082 08 55 59.78 +10 05 18.2 21.0   608 – Haleakala-AMOS MPS 284323
2001 01 27.53108 08 55 59.19 +10 05 21.7 20.9   608 – Haleakala-AMOS MPS 284323
2004 10 07.26487 01 32 05.89 +00 13 32.2 18.8 R 699 – Lowell Observatory-LONEOS MPS 120578
2004 10 07.28430 01 32 05.00 +00 13 23.6   699 – Lowell Observatory-LONEOS MPS 120578
2004 10 07.28597 01 32 04.90 +00 13 21.7 19.3   704 – Lincoln Laboratory ETS, New Mexico MPS 117841
2004 10 07.29710 01 32 04.40 +00 13 17.8 19.9   704 – Lincoln Laboratory ETS, New Mexico MPS 117841
2004 10 07.30374 01 32 04.11 +00 13 14.4   699 – Lowell Observatory-LONEOS MPS 120578
2004 10 07.30810 01 32 03.94 +00 13 12.1 19.6   704 – Lincoln Laboratory ETS, New Mexico MPS 117841
2004 10 07.31933 01 32 03.42 +00 13 08.0 19.9   704 – Lincoln Laboratory ETS, New Mexico MPS 117841
2004 10 07.32322 01 32 03.36 +00 13 04.8   699 – Lowell Observatory-LONEOS MPS 120579
2004 10 07.33043 01 32 02.97 +00 13 01.2 19.9   704 – Lincoln Laboratory ETS, New Mexico MPS 117841
2004 10 09.27397 01 30 40.82 -00 02 01.3 19.6   704 – Lincoln Laboratory ETS, New Mexico MPS 117841
2004 10 09.28528 01 30 40.29 -00 02 05.9 20.2   704 – Lincoln Laboratory ETS, New Mexico MPS 117841
2004 10 09.29671 01 30 39.82 -00 02 11.7 19.9   704 – Lincoln Laboratory ETS, New Mexico MPS 117841
2004 10 10.311287 01 29 56.282 -00 09 57.89 19.83 V 645 – Apache Point-Sloan Digital Sky Survey MPS 390327
2004 10 10.314759 01 29 56.127 -00 09 59.49 20.79   645 – Apache Point-Sloan Digital Sky Survey MPS 390327
2004 10 16.355927 01 25 32.764 -00 54 34.30 19.33 V 645 – Apache Point-Sloan Digital Sky Survey MPS 390327
2004 10 16.359399 01 25 32.607 -00 54 35.82 20.05   645 – Apache Point-Sloan Digital Sky Survey MPS 390327
2004 11 03.19871 01 13 37.05 -02 37 23.1 19.1 R 699 – Lowell Observatory-LONEOS MPS 120579
2004 11 03.21818 01 13 36.35 -02 37 27.8   699 – Lowell Observatory-LONEOS MPS 120579
2004 11 03.23769 01 13 35.53 -02 37 33.8   699 – Lowell Observatory-LONEOS MPS 120579
2004 11 03.25721 01 13 34.85 -02 37 36.6   699 – Lowell Observatory-LONEOS MPS 120579
2007 03 11.42841 13 33 26.98 -02 45 23.7 21.4 V 691 – Steward Observatory, Kitt Peak-Spacewatch MPS 284323
2007 03 11.44601 13 33 26.51 -02 45 18.4 21.3 V 691 – Steward Observatory, Kitt Peak-Spacewatch MPS 284323
2007 03 11.46361 13 33 26.04 -02 45 12.3 21.2 V 691 – Steward Observatory, Kitt Peak-Spacewatch MPS 284323
2007 03 15.36142 13 31 36.70 -02 21 41.2 20.9 V 691 – Steward Observatory, Kitt Peak-Spacewatch MPS 284323
2007 03 15.37905 13 31 36.17 -02 21 35.1 20.9 V 691 – Steward Observatory, Kitt Peak-Spacewatch MPS 284323
2007 03 15.39668 13 31 35.59 -02 21 28.6 21.0 V 691 – Steward Observatory, Kitt Peak-Spacewatch MPS 284323
2007 04 23.26685 13 05 39.37 +01 41 18.7 20.3 V G96 – Mt. Lemmon Survey MPS 284323
2007 04 23.27353 13 05 39.15 +01 41 20.4 20.5 V G96 – Mt. Lemmon Survey MPS 284323
2007 04 23.28207 13 05 38.76 +01 41 23.0 21.0 V G96 – Mt. Lemmon Survey MPS 284323
2007 04 23.28861 13 05 38.50 +01 41 24.9 20.6 V G96 – Mt. Lemmon Survey MPS 284323
2009 08 29.12596 00 58 45.66 +01 33 37.9 19.7 V J75 – OAM Observatory, La Sagra MPS 294415
2009 08 29.14635 00 58 45.34 +01 33 30.6 19.4 V J75 – OAM Observatory, La Sagra MPS 294415
2009 08 29.16682 00 58 45.07 +01 33 23.6 19.9 V J75 – OAM Observatory, La Sagra MPS 294415
2009 09 20.24209 00 48 58.82 -01 08 15.9 19.4   704 – Lincoln Laboratory ETS, New Mexico MPS 295810
2009 09 20.25374 00 48 58.36 -01 08 22.1 19.4   704 – Lincoln Laboratory ETS, New Mexico MPS 295810
2009 09 20.26540 00 48 57.93 -01 08 27.8 19.2   704 – Lincoln Laboratory ETS, New Mexico MPS 295810
2009 09 20.27720 00 48 57.48 -01 08 33.0 19.5   704 – Lincoln Laboratory ETS, New Mexico MPS 295810
2009 09 24.37465 00 46 17.76 -01 42 15.4 19.4 V G96 – Mt. Lemmon Survey MPS 295810
2009 09 24.39141 00 46 17.04 -01 42 23.6 19.5 V G96 – Mt. Lemmon Survey MPS 295810
2009 09 24.40000 00 46 16.68 -01 42 27.9 19.5 V G96 – Mt. Lemmon Survey MPS 295810
2009 10 09.26390 00 35 55.42 -03 39 53.6 19.3 V 703 – Catalina Sky Survey MPS 298299
2009 10 09.27110 00 35 55.21 -03 39 57.7 19.4 V 703 – Catalina Sky Survey MPS 298299
2009 10 09.27829 00 35 54.92 -03 40 01.5 19.0 V 703 – Catalina Sky Survey MPS 298299
2009 10 09.28551 00 35 54.67 -03 40 04.8 20.1 V 703 – Catalina Sky Survey MPS 298299
2009 10 13.23316 00 33 14.00 -04 07 50.7 19.6   704 – Lincoln Laboratory ETS, New Mexico MPS 298299
2009 10 13.24598 00 33 13.47 -04 07 56.6 19.5   704 – Lincoln Laboratory ETS, New Mexico MPS 298299
2009 10 13.27154 00 33 12.37 -04 08 06.6 19.7   704 – Lincoln Laboratory ETS, New Mexico MPS 298299
2009 12 03.06439 00 23 08.51 -05 45 16.9 19.3 H W91 – VHS-VISTA, Cerro Paranal MPS 678148
2009 12 03.06650 00 23 08.56 -05 45 16.5 19.5 H W91 – VHS-VISTA, Cerro Paranal MPS 678148
2011 01 13.28105 07 39 06.22 +11 03 32.5 20.1 V G96 – Mt. Lemmon Survey MPS 366701
2011 01 13.29045 07 39 05.79 +11 03 34.8 19.9 V G96 – Mt. Lemmon Survey MPS 366701
2011 01 13.29979 07 39 05.25 +11 03 37.0 20.2 V G96 – Mt. Lemmon Survey MPS 366701
2011 01 13.30917 07 39 04.75 +11 03 39.1 20.2 V G96 – Mt. Lemmon Survey MPS 366701
2012 02 28.52011 13 05 28.041 -01 38 08.24 21.3 w F51 – Pan-STARRS 1, Haleakala MPS 415911
2012 02 28.53448 13 05 27.708 -01 38 03.50 21.2 w F51 – Pan-STARRS 1, Haleakala MPS 415911
2012 02 28.56333 13 05 27.036 -01 37 53.46 21.8 w F51 – Pan-STARRS 1, Haleakala MPS 415911
2012 02 29.44230 13 05 07.18 -01 33 00.7 21.2 V 691 – Steward Observatory, Kitt Peak-Spacewatch MPS 415911
2012 02 29.45750 13 05 06.78 -01 32 56.2 20.8 V 691 – Steward Observatory, Kitt Peak-Spacewatch MPS 415911
2012 02 29.47271 13 05 06.45 -01 32 49.9 20.9 V 691 – Steward Observatory, Kitt Peak-Spacewatch MPS 415911
2012 03 25.20844 12 51 00.85 +01 08 08.6   691 – Steward Observatory, Kitt Peak-Spacewatch MPS 420042
2012 03 25.22618 12 51 00.10 +01 08 16.5   691 – Steward Observatory, Kitt Peak-Spacewatch MPS 420042
2012 03 25.24393 12 50 59.32 +01 08 23.8   691 – Steward Observatory, Kitt Peak-Spacewatch MPS 420042
2012 04 12.33991 12 38 09.702 +03 05 16.17 20.4 w F51 – Pan-STARRS 1, Haleakala MPS 420747
2012 04 12.35384 12 38 09.116 +03 05 20.92 20.5 w F51 – Pan-STARRS 1, Haleakala MPS 420747
2012 04 12.36779 12 38 08.529 +03 05 25.75 20.5 w F51 – Pan-STARRS 1, Haleakala MPS 420747
2012 04 12.38181 12 38 07.941 +03 05 30.58 20.5 w F51 – Pan-STARRS 1, Haleakala MPS 420747
2013 06 18.40307 17 25 34.475 -09 51 46.82 19.9 i F51 – Pan-STARRS 1, Haleakala MPS 471115
2013 06 18.41336 17 25 33.946 -09 51 46.96 20.1 i F51 – Pan-STARRS 1, Haleakala MPS 471115
2013 06 18.42892 17 25 33.164 -09 51 47.01 20.0 r F51 – Pan-STARRS 1, Haleakala MPS 471115
2013 06 18.43807 17 25 32.701 -09 51 47.19 20.0 r F51 – Pan-STARRS 1, Haleakala MPS 471115
2014 06 24.43012 23 53 01.09 +00 14 31.7 21.7 V G96 – Mt. Lemmon Survey MPS 521030
2014 06 24.43468 23 53 01.30 +00 14 32.6 20.9 V G96 – Mt. Lemmon Survey MPS 521030
2014 06 24.43927 23 53 01.51 +00 14 33.0 21.3 V G96 – Mt. Lemmon Survey MPS 521030
2014 06 24.44382 23 53 01.72 +00 14 34.8 21.4 V G96 – Mt. Lemmon Survey MPS 521030
2014 08 25.18084 00 08 09.47 -01 25 38.8 19.5 R J04 – ESA Optical Ground Station, Tenerife MPS 535860
2014 08 25.20422 00 08 08.87 -01 25 48.4 19.6 R J04 – ESA Optical Ground Station, Tenerife MPS 535860
2014 08 25.21591 00 08 08.55 -01 25 53.1 19.4 R J04 – ESA Optical Ground Station, Tenerife MPS 535860
2014 08 27.47775 00 07 11.413 -01 41 22.73 19.7 w F51 – Pan-STARRS 1, Haleakala MPS 529336
2014 08 27.48914 00 07 11.090 -01 41 27.53 19.8 w F51 – Pan-STARRS 1, Haleakala MPS 529336
2014 08 27.50052 00 07 10.764 -01 41 32.35 19.7 w F51 – Pan-STARRS 1, Haleakala MPS 529336
2014 08 27.51198 00 07 10.438 -01 41 37.09 19.7 w F51 – Pan-STARRS 1, Haleakala MPS 529336
2014 08 30.40931 00 05 48.58 -02 02 26.9 20.2 g I41 – Palomar Mountain--ZTF MPS 531090
2014 08 30.42558 00 05 48.07 -02 02 34.2 20.2 g I41 – Palomar Mountain--ZTF MPS 531090
2014 08 30.44188 00 05 47.56 -02 02 41.3 20.1 g I41 – Palomar Mountain--ZTF MPS 531090
2014 08 30.49574 00 05 46.048 -02 03 04.21 20.0 w F51 – Pan-STARRS 1, Haleakala MPS 531090
